sat.trackr.live / text

‹ back to catalog

KUIPER-00184

NORAD 67139 · 2025-301G

PAYLOAD ACTIVE UNKNOWN

§ Identity

Operator
Country
US
Launch date
2025-12-16
Launch site
AFETR
Launch vehicle
Mass (kg)
RCS (m²)

External: N2YO · Heavens-Above · Gunter

§ Orbital elements

Epoch: 2026-05-25T02:08:23.589888Z

Period
97.53 min
Inclination
51.8991°
Eccentricity
0.0001833
Mean motion
14.76455603 rev/d
Perigee alt
639.2 km
Apogee alt
641.8 km
Semi-major
7,018.7 km
B*
2.7880e-4
RAAN
82.5613°
Arg perigee
120.0766°
Mean anomaly
240.0376°
Rev number
2,539

§ Raw data

KUIPER-001841 67139U 25301G   26145.08916192  .00001743  00000+0  27880-3 0  99932 67139  51.8991  82.5613 0001833 120.0766 240.0376 14.76455603 25395

JSON: /api/v1/satellites/67139 · /tle

For live sub-satellite position, see the globe view (requires WebGL).

§ Visibility from observer

Set your observer location to see the next 7 days of passes ≥ 10°. The values pass through the URL so the page stays shareable.

No JS? Fill the form by hand. The geolocation button needs JavaScript.